This is the latest recevied weather packets stored in our database for station/object KD2DXJ. If no packets are shown the sender has not sent any weather packets the latest 1 day(s).
| Time | Temp. | Humidity | Pressure | Rain* | Wind** | Luminosity | Snow |
|---|---|---|---|---|---|---|---|
| 1778047315 | 6.67° C | 99% | 1009.4 hPa | 0 mm | - | 0 W/m² | - |
| 1778046709 | 6.67° C | 99% | 1009.6 hPa | 1.27 mm | - | 0 W/m² | - |
| 1778046102 | 6.67° C | 99% | 1009.2 hPa | 0 mm | - | 0 W/m² | - |
| 1778045800 | 6.67° C | 99% | 1009.4 hPa | 0 mm | - | 0 W/m² | - |
| 1778044894 | 6.67° C | 99% | 1009.2 hPa | 0 mm | - | 0 W/m² | - |
| 1778044591 | 6.67° C | 99% | 1009.2 hPa | 1.78 mm | - | 0 W/m² | - |
| 1778044287 | 6.67° C | 99% | 1009.5 hPa | 1.78 mm | - | 0 W/m² | - |
| 1778043985 | 6.67° C | 99% | 1009.4 hPa | 0 mm | - | 0 W/m² | - |
| 1778043682 | 6.67° C | 99% | 1009.2 hPa | 0 mm | - | 0 W/m² | - |
| 1778043379 | 6.67° C | 99% | 1009.5 hPa | 0 mm | - | 0 W/m² | - |
| 1778042470 | 7.22° C | 99% | 1009.4 hPa | 0 mm | - | 0 W/m² | - |
| 1778042167 | 7.22° C | 99% | 1009.4 hPa | 0 mm | - | 0 W/m² | - |
| 1778041865 | 7.22° C | 99% | 1009.3 hPa | 1.27 mm | - | 0 W/m² | - |
| 1778041564 | 7.22° C | 99% | 1009.5 hPa | 1.27 mm | - | 0 W/m² | - |
| 1778041262 | 7.22° C | 99% | 1009.3 hPa | 0 mm | - | 0 W/m² | - |
| 1778039444 | 7.22° C | 99% | 1009.7 hPa | 1.27 mm | - | 0 W/m² | - |
| 1778039142 | 7.22° C | 99% | 1009.6 hPa | 1.27 mm | - | 0 W/m² | - |
| 1778038838 | 7.22° C | 99% | 1009.7 hPa | 0 mm | - | 0 W/m² | - |
| 1778038536 | 7.22° C | 99% | 1009.8 hPa | 1.78 mm | - | 0 W/m² | - |
| 1778037930 | 7.78° C | 99% | 1009.7 hPa | 1.27 mm | - | 0 W/m² | - |
| 1778037627 | 7.78° C | 99% | 1009.5 hPa | 1.27 mm | - | 0 W/m² | - |
| 1778037021 | 7.78° C | 99% | 1009.3 hPa | 1.78 mm | - | 0 W/m² | - |
| 1778036416 | 7.78° C | 99% | 1009.1 hPa | 1.27 mm | - | 0 W/m² | - |
| 1778036113 | 7.78° C | 99% | 1009.2 hPa | 0 mm | - | 0 W/m² | - |
| 1778034899 | 7.78° C | 99% | 1009 hPa | 1.78 mm | - | 0 W/m² | - |
* Rain latest hour (hover to see other rain measurements)
** Current wind speed in m/s (hover to see current wind gust speed)